| time (UTC) | temp C | wind direction | speed KPH | gust KPH | rain 1hr cm | rain 24hr cm | rain mn cm | humidity % | barometer mb |
| 20260506091514 | 4 | 322 | 0.0 | 0.0 | 0.00 | 0.00 | 0.00 | 94 | 1017.1 |
| 20260506090010 | 4 | 322 | 0.0 | 0.0 | 0.00 | 0.00 | 0.00 | 94 | 1017.0 |
| 20260506084511 | 4 | 322 | 0.0 | 0.0 | 0.00 | 0.00 | 0.00 | 94 | 1017.0 |
| 20260506083009 | 4 | 322 | 0.0 | 0.0 | 0.00 | 0.00 | 0.00 | 94 | 1016.9 |
| 20260506061521 | 5 | 322 | 0.0 | 0.0 | 0.00 | 0.00 | 0.00 | 91 | 1016.0 |
| 20260506044540 | 7 | 322 | 0.0 | 0.0 | 0.00 | 0.00 | 0.00 | 84 | 1015.1 |
| 20260506043011 | 8 | 322 | 0.0 | 0.0 | 0.00 | 0.00 | 0.00 | 80 | 1015.1 |
| 20260506041601 | 8 | 322 | 0.0 | 0.0 | 0.00 | 0.00 | 0.00 | 77 | 1014.9 |
| 20260506040050 | 8 | 304 | 0.0 | 0.0 | 0.00 | 0.00 | 0.00 | 78 | 1014.8 |
| 20260506034559 | 8 | 271 | 0.0 | 0.0 | 0.00 | 0.00 | 0.00 | 79 | 1014.6 |
| 20260506033035 | 8 | 36 | 0.0 | 0.0 | 0.00 | 0.00 | 0.00 | 79 | 1014.4 |
| 20260506031530 | 8 | 36 | 0.0 | 3.2 | 0.00 | 0.00 | 0.00 | 81 | 1014.3 |
| 20260506030028 | 9 | 216 | 0.0 | 0.0 | 0.00 | 0.00 | 0.00 | 83 | 1014.1 |
| 20260506024528 | 9 | 330 | 0.0 | 0.0 | 0.00 | 0.00 | 0.00 | 83 | 1014.0 |
| 20260506023024 | 10 | 244 | 0.0 | 8.0 | 0.00 | 0.00 | 0.00 | 83 | 1014.1 |
| 20260506021525 | 10 | 237 | 0.0 | 8.0 | 0.00 | 0.00 | 0.00 | 83 | 1013.9 |
| 20260506020025 | 10 | 227 | 0.0 | 8.0 | 0.00 | 0.00 | 0.00 | 80 | 1013.7 |
| 20260506014528 | 10 | 282 | 0.0 | 0.0 | 0.00 | 0.00 | 0.00 | 83 | 1013.5 |
| 20260506013022 | 10 | 292 | 0.0 | 0.0 | 0.00 | 0.00 | 0.00 | 80 | 1013.5 |
| 20260506011523 | 11 | 241 | 0.0 | 8.0 | 0.00 | 0.00 | 0.00 | 75 | 1013.5 |
| 20260506010022 | 10 | 240 | 0.0 | 8.0 | 0.00 | 0.00 | 0.00 | 76 | 1013.5 |
| 20260506004531 | 11 | 238 | 3.2 | 12.9 | 0.00 | 0.00 | 0.00 | 74 | 1013.6 |
| 20260506003025 | 12 | 236 | 4.8 | 12.9 | 0.00 | 0.00 | 0.00 | 72 | 1013.6 |
| 20260506001555 | 14 | 248 | 0.0 | 8.0 | 0.00 | 0.00 | 0.00 | 62 | 1013.5 |
| 20260506000047 | 14 | 257 | 0.0 | 1.6 | 0.00 | 0.00 | 0.00 | 53 | 1013.5 |
| 20260505234546 | 15 | 74 | 0.0 | 4.8 | 0.00 | 0.00 | 0.00 | 52 | 1013.5 |
| 20260505233026 | 14 | 90 | 0.0 | 3.2 | 0.00 | 0.00 | 0.00 | 53 | 1013.7 |
| 20260505231510 | 13 | 121 | 3.2 | 9.7 | 0.00 | 0.00 | 0.00 | 53 | 1013.9 |
| 20260505230007 | 14 | 86 | 0.0 | 8.0 | 0.00 | 0.00 | 0.00 | 54 | 1014.0 |
| 20260505224546 | 13 | 82 | 1.6 | 11.3 | 0.00 | 0.00 | 0.00 | 55 | 1014.2 |
| 20260505223043 | 13 | 105 | 1.6 | 16.1 | 0.00 | 0.00 | 0.00 | 55 | 1014.1 |
| 20260505221522 | 13 | 95 | 0.0 | 19.3 | 0.00 | 0.00 | 0.00 | 58 | 1014.3 |
| 20260505220029 | 12 | 111 | 0.0 | 12.9 | 0.00 | 0.00 | 0.00 | 57 | 1014.4 |
| 20260505214503 | 13 | 86 | 0.0 | 11.3 | 0.00 | 0.00 | 0.00 | 58 | 1014.5 |
| 20260505213105 | 12 | 117 | 1.6 | 19.3 | 0.00 | 0.00 | 0.00 | 60 | 1014.7 |
| 20260505211547 | 12 | 118 | 4.8 | 14.5 | 0.00 | 0.00 | 0.00 | 60 | 1014.8 |
| 20260505210039 | 12 | 116 | 0.0 | 16.1 | 0.00 | 0.00 | 0.00 | 65 | 1014.9 |
| 20260505204519 | 11 | 74 | 1.6 | 11.3 | 0.00 | 0.00 | 0.00 | 69 | 1015.0 |
| 20260505203015 | 11 | 149 | 0.0 | 6.4 | 0.00 | 0.00 | 0.00 | 77 | 1014.9 |
| 20260505201557 | 10 | 246 | 1.6 | 9.7 | 0.00 | 0.00 | 0.00 | 74 | 1015.0 |
| 20260505200052 | 9 | 257 | 0.0 | 11.3 | 0.00 | 0.00 | 0.00 | 80 | 1015.2 |
| 20260505194543 | 9 | 264 | 0.0 | 6.4 | 0.00 | 0.00 | 0.00 | 80 | 1015.3 |
| 20260505193043 | 8 | 239 | 0.0 | 0.0 | 0.00 | 0.00 | 0.00 | 85 | 1015.4 |
| 20260505191548 | 8 | 130 | 0.0 | 4.8 | 0.00 | 0.00 | 0.00 | 88 | 1015.4 |
| 20260505190030 | 7 | 81 | 0.0 | 0.0 | 0.00 | 0.00 | 0.00 | 91 | 1015.5 |
| 20260505184528 | 7 | 192 | 0.0 | 0.0 | 0.00 | 0.00 | 0.00 | 97 | 1015.4 |
| 20260505183028 | 7 | 192 | 0.0 | 0.0 | 0.00 | 0.00 | 0.00 | 97 | 1015.4 |
| 20260505181525 | 6 | 93 | 0.0 | 0.0 | 0.00 | 0.00 | 0.00 | 97 | 1015.4 |
| 20260505180027 | 5 | 73 | 0.0 | 0.0 | 0.00 | 0.00 | 0.00 | 97 | 1015.2 |
| 20260505174505 | 5 | 73 | 0.0 | 0.0 | 0.00 | 0.00 | 0.00 | 97 | 1015.2 |
| 20260505173004 | 4 | 73 | 0.0 | 0.0 | 0.00 | 0.00 | 0.00 | 97 | 1015.0 |
| 20260505171502 | 3 | 73 | 0.0 | 0.0 | 0.00 | 0.00 | 0.00 | 97 | 1015.0 |
| 20260505170001 | 3 | 73 | 0.0 | 0.0 | 0.00 | 0.00 | 0.00 | 97 | 1014.8 |
| 20260505164502 | 3 | 72 | 0.0 | 0.0 | 0.00 | 0.00 | 0.00 | 97 | 1014.8 |
| 20260505163100 | 3 | 72 | 0.0 | 0.0 | 0.00 | 0.00 | 0.00 | 97 | 1014.8 |
| 20260505161604 | 3 | 72 | 0.0 | 0.0 | 0.00 | 0.00 | 0.00 | 97 | 1014.5 |
| 20260505153051 | 2 | 72 | 0.0 | 0.0 | 0.00 | 0.00 | 0.00 | 97 | 1014.2 |
| 20260505151519 | 2 | 72 | 0.0 | 0.0 | 0.00 | 0.00 | 0.00 | 97 | 1014.0 |
| 20260505124507 | 1 | 72 | 0.0 | 0.0 | 0.00 | 0.00 | 0.00 | 96 | 1012.9 |
| 20260505123103 | 1 | 72 | 0.0 | 0.0 | 0.00 | 0.00 | 0.00 | 97 | 1012.9 |
| 20260505121545 | 1 | 72 | 0.0 | 0.0 | 0.00 | 0.00 | 0.00 | 96 | 1012.9 |
| 20260505120030 | 1 | 72 | 0.0 | 0.0 | 0.00 | 0.00 | 0.00 | 96 | 1012.8 |
| 20260505114526 | 1 | 72 | 0.0 | 0.0 | 0.00 | 0.00 | 0.00 | 96 | 1012.8 |
| 20260505113008 | 1 | 72 | 0.0 | 0.0 | 0.00 | 0.00 | 0.00 | 96 | 1012.8 |
| 20260505111507 | 1 | 72 | 0.0 | 0.0 | 0.00 | 0.00 | 0.00 | 96 | 1012.8 |
| 20260505101534 | 1 | 72 | 0.0 | 0.0 | 0.00 | 0.00 | 0.00 | 96 | 1012.8 |
| 20260505100013 | 1 | 72 | 0.0 | 0.0 | 0.00 | 0.00 | 0.00 | 96 | 1012.9 |
| 20260505094512 | 1 | 72 | 0.0 | 0.0 | 0.00 | 0.00 | 0.00 | 96 | 1012.9 |
| 20260505093055 | 1 | 72 | 0.0 | 0.0 | 0.00 | 0.00 | 0.00 | 96 | 1013.1 |